Change the Weather History Date:

Monday, October 18, 2010

  Actual Average Record
Temperature  
Mean Temperature 49 °F 52 °F  
Max Temperature 60 °F 62 °F 83 °F (1938)
Min Temperature 37 °F 42 °F 26 °F (1976)
Degree Days  
Heating Degree Days 16 13  
Month to date heating degree days 182 192  
Since 1 July heating degree days 253 306  
Cooling Degree Days 0 0  
Month to date cooling degree days 2 6  
Year to date cooling degree days 1028 734  
Moisture  
Dew Point 37 °F    
Average Humidity 67    
Maximum Humidity 93    
Minimum Humidity 40    
Precipitation  
Precipitation 0.31 in 0.07 in 1.66 in (1927)
Month to date precipitation 1.28 1.29  
Year to date precipitation 29.48 31.11  
Snow  
Snow 0.00 in 0.10 in 1.80 in (1972)
Month to date snowfall 0.0 0.1  
Since 1 July snowfall 0.0 0.1  
Snow Depth 0.00 in    
Sea Level Pressure  
Sea Level Pressure 30.02 in    
Wind  
Wind Speed 3 mph (North)    
Max Wind Speed 16 mph    
Max Gust Speed 18 mph    
Visibility 9 miles    
Events Rain    
T = Trace of Precipitation, MM = Missing Value Source: NWS Daily Summary

Daily Weather History Graph

Daily Weather History Graph

Search for Another Location

Airport or City:

Trip Planner

Search our weather history database for the weather conditions in past years. The results will help you decide how hot, cold, wet, or windy it might be!

Date:

Astronomy

Oct. 18, 2010 Rise Set
Actual Time 7:34 AM EDT 6:36 PM EDT
Civil Twilight 7:07 AM EDT 7:03 PM EDT
Nautical Twilight 6:35 AM EDT 7:35 PM EDT
Astronomical Twilight 6:04 AM EDT 8:07 PM EDT
Moon 4:21 PM EDT (10/18) 3:21 AM EDT (10/18)
Length of Visible Light 11h 56m
Length of Day
11h 01m
Waxing Gibbous, 83% of the Moon is Illuminated
Oct 18
Waxing Gibbous
Oct 22
Full
Oct 30
Last Quarter
Nov 6
New
Nov 13
First Quarter

Hourly Weather History & Observations

Time (EDT) Temp. Dew Point Humidity Pressure Visibility Wind Dir Wind Speed Gust Speed Precip Events Conditions
12:51 AM 43.0 °F 32.0 °F 65% 30.03 in 10.0 mi Calm Calm - N/A   Clear
1:51 AM 42.1 °F 30.9 °F 65% 30.02 in 10.0 mi Calm Calm - N/A   Clear
2:51 AM 41.0 °F 32.0 °F 70% 30.02 in 10.0 mi Calm Calm - N/A   Partly Cloudy
3:51 AM 41.0 °F 30.9 °F 67% 30.01 in 10.0 mi Calm Calm - N/A   Partly Cloudy
4:51 AM 39.9 °F 32.0 °F 73% 30.02 in 10.0 mi Calm Calm - N/A   Partly Cloudy
5:51 AM 37.9 °F 32.0 °F 79% 30.03 in 10.0 mi Calm Calm - N/A   Partly Cloudy
6:51 AM 39.0 °F 32.0 °F 76% 30.04 in 10.0 mi Calm Calm - N/A   Clear
7:51 AM 37.9 °F 33.1 °F 83% 30.05 in 10.0 mi Calm Calm - N/A   Mostly Cloudy
8:51 AM 39.9 °F 34.0 °F 79% 30.05 in 10.0 mi Calm Calm - N/A   Overcast
9:51 AM 46.0 °F 35.1 °F 66% 30.07 in 10.0 mi Calm Calm - N/A   Overcast
10:51 AM 53.1 °F 35.1 °F 50% 30.06 in 10.0 mi Calm Calm - N/A   Overcast
11:51 AM 57.0 °F 34.0 °F 42% 30.04 in 10.0 mi Calm Calm - N/A   Overcast
12:51 PM 59.0 °F 36.0 °F 42% 30.03 in 10.0 mi NNW 5.8 mph - N/A   Overcast
1:51 PM 57.9 °F 33.1 °F 39% 30.01 in 10.0 mi NE 5.8 mph - N/A   Overcast
2:51 PM 55.0 °F 37.9 °F 53% 30.01 in 10.0 mi NNE 9.2 mph - 0.00 in   Overcast
3:51 PM 54.0 °F 37.9 °F 55% 30.00 in 10.0 mi NNE 10.4 mph - N/A   Overcast
4:51 PM 51.1 °F 39.9 °F 66% 30.00 in 10.0 mi North 10.4 mph - 0.00 in   Overcast
5:51 PM 48.9 °F 41.0 °F 74% 30.01 in 10.0 mi NNW 6.9 mph - 0.02 in Rain Light Rain
6:51 PM 48.0 °F 44.1 °F 86% 30.00 in 8.0 mi Calm Calm - 0.03 in Rain Light Rain
7:51 PM 46.9 °F 45.0 °F 93% 29.99 in 10.0 mi Calm Calm - 0.00 in   Overcast
8:51 PM 46.9 °F 45.0 °F 93% 30.01 in 7.0 mi West 3.5 mph - 0.02 in Rain Light Rain
9:51 PM 46.9 °F 45.0 °F 93% 30.00 in 6.0 mi South 3.5 mph - 0.04 in Rain Light Rain
10:51 PM 46.9 °F 45.0 °F 93% 29.97 in 6.0 mi SSE 4.6 mph - 0.07 in Rain Light Rain
11:51 PM 46.9 °F 44.1 °F 90% 29.97 in 6.0 mi Calm Calm - 0.03 in Rain Light Rain